Regional Weather Roundup
Issued by NWS Columbia, SC

Home | Current Version | Previous Version | Text Only | Print | Product List | Glossary On
Versions: 1 2 3 4 5 6 7 8 9 10 11 12 13 14 15 16 17 18 19 20 21 22 23 24 25 26 27 28 29 30 31 32 33 34 35 36 37 38 39 40 41 42 43 44 45 46 47 48 49 50
000
ASUS42 KCAE 062310
RWRCAE
REGIONAL WEATHER ROUNDUP
NATIONAL WEATHER SERVICE COLUMBIA SC
600 PM EST SAT FEB 06 2016

NOTE: "FAIR" INDICATES FEW OR NO CLOUDS BELOW 12,000 FEET WITH NO
SIGNIFICANT WEATHER AND/OR OBSTRUCTIONS TO VISIBILITY.

NOT ALL STATIONS ARE QUALITY CONTROLLED BY THE NATIONAL
WEATHER SERVICE. USE DATA WITH CAUTION...ESPECIALLY
DEWPOINT OBSERVATIONS.

SCZ001>056-GAZ040-063>065-077-070000-
...UPSTATE SOUTH CAROLINA...

CITY           SKY/WX    TMP DP  RH WIND       PRES   REMARKS
ANDERSON       CLOUDY    48  17  29 E8        30.25F
LIBERTY        PTCLDY    47  16  29 SE5       30.23S
SPARTANBURG    CLOUDY    45  16  31 E6        30.26R
CLEMSON        MOCLDY    48  20  32 VRB3      30.25S
GREENVILLE     CLOUDY    47  14  26 E10       30.25F
GREENWOOD      CLOUDY    48  20  32 N6        30.28R
GREER          CLOUDY    45  18  34 E5        30.25S
ROCK HILL      CLOUDY    46  17  31 VRB5      30.28R
LAURENS        CLOUDY    45  21  39 N6        30.27R


...CENTRAL SOUTH CAROLINA...

CITY           SKY/WX    TMP DP  RH WIND       PRES   REMARKS
COLUMBIA APT   CLOUDY    50  24  36 E8        30.26F
COLUMBIA OWENS CLOUDY    49  25  39 E5        30.27F
MCENTIRE ANGB  CLOUDY    47  30  51 E5        30.26F
ORANGEBURG     LGT RAIN  43  33  68 NE3       30.27S
SUMTER SHAW    CLOUDY    46  30  53 E5        30.25F
NEWBERRY       CLOUDY    46  23  39 NE3       30.29S
AIKEN          MOCLDY    45  27  49 CALM      30.29R
BARNWELL       LGT RAIN  43  37  81 CALM      30.28S
MANNING        CLOUDY    46  28  49 CALM      30.27R
CAMDEN         FAIR      48  48 100 N5        30.28F
LANCASTER      CLOUDY    46  18  31 CALM      30.29R
WINNSBORO      CLOUDY    46  25  42 NE5       30.26F


...EASTERN AND COASTAL SOUTH CAROLINA...

CITY           SKY/WX    TMP DP  RH WIND       PRES   REMARKS
MYRTLE BEACH   CLOUDY    48  28  46 NE14      30.28F
N MYRTLE BCH   CLOUDY    48  28  46 NE9       30.26F
CONWAY         CLOUDY    46  30  53 N7        30.26F HAZE
MARION         CLOUDY    46  25  42 N7        30.28R
HARTSVILLE     CLOUDY    46  27  46 CALM      30.28R
FLORENCE       CLOUDY    47  26  44 NE6       30.27F
DARLINGTON     CLOUDY    48  27  43 E3        30.29S
CHARLESTON APT LGT RAIN  47  34  60 N13       30.25R
MOUNT PLEASANT CLOUDY    46  41  81 CALM      30.24S
WALTERBORO     CLOUDY    45  36  70 N7        30.26S
BEAUFORT       CLOUDY    47  35  63 N14       30.23F


...EASTERN GEORGIA...

CITY           SKY/WX    TMP DP  RH WIND       PRES   REMARKS
AUGUSTA BUSH F CLOUDY    46  30  53 SE5       30.27S
AUGUSTA DANIEL CLOUDY    47  26  44 SE7       30.26F
THOMSON        CLOUDY    50  32  50 CALM      30.29F
WASHINGTON     FAIR      50  32  50 CALM      30.24F
CLAXTON        CLOUDY    43  40  90 N6        30.24F
SYLVANIA       CLOUDY    42  40  92 NE8       30.26F
STATESBORO     DRIZZLE   45  36  71 N7        30.24F
SAVANNAH       CLOUDY    45  36  70 N9        30.22F


...SOUTHERN NORTH CAROLINA...

CITY           SKY/WX    TMP DP  RH WIND       PRES   REMARKS
CHARLOTTE      CLOUDY    44  19  36 N5        30.28S
MONROE         CLOUDY    45  21  38 NE5       30.28R
WADESBORO      CLOUDY    47  19  33 CALM      30.29S
ROCKINGHAM     CLOUDY    47  20  34 NE5       30.28S
RUTHERFORDTON  PTCLDY    46  11  24 CALM      30.26S
ASHEVILLE      CLEAR     39  10  30 NW8       30.23F WCI  33

$$



USA.gov is the U.S. government's official web portal to all federal, state and local government web resources and services.